This is the latest recevied weather packets stored in our database for station/object 4S6DRJ-13. If no packets are shown the sender has not sent any weather packets the latest 10 day(s).
| Time | Temp. | Humidity | Pressure | Rain* | Wind** | Luminosity | Snow |
|---|---|---|---|---|---|---|---|
| 1787825715 | 30° C | 75% | 1008.3 hPa | 0 mm | 1.34 m/s, 182° | 376 W/m² | - |
| 1787825654 | 30° C | 75% | 1008.4 hPa | 0 mm | 1.34 m/s, 227° | 405 W/m² | - |
| 1787825593 | 30° C | 75% | 1008.3 hPa | 0 mm | 0.89 m/s, 301° | 431 W/m² | - |
| 1787825532 | 30° C | 75% | 1008.4 hPa | 0 mm | 0.89 m/s, 259° | 445 W/m² | - |
| 1787825471 | 30° C | 75% | 1008.3 hPa | 0 mm | 1.34 m/s, 28° | 389 W/m² | - |
| 1787825410 | 30° C | 75% | 1008.4 hPa | 0 mm | 1.79 m/s, 331° | 369 W/m² | - |
| 1787825349 | 30° C | 75% | 1008.1 hPa | 0 mm | 0.45 m/s, 261° | 469 W/m² | - |
| 1787825288 | 30° C | 76% | 1008.3 hPa | 0 mm | 0.45 m/s, 292° | 523 W/m² | - |
| 1787825227 | 30° C | 76% | 1008.2 hPa | 0 mm | 0.45 m/s, 118° | 469 W/m² | - |
| 1787825166 | 30° C | 76% | 1008.2 hPa | 0 mm | 1.79 m/s, 290° | 402 W/m² | - |
| 1787825105 | 30° C | 76% | 1008.1 hPa | 0 mm | 1.79 m/s, 329° | 547 W/m² | - |
| 1787825044 | 30° C | 76% | 1008.2 hPa | 0 mm | 0.45 m/s, 258° | 554 W/m² | - |
| 1787824983 | 30° C | 76% | 1008.3 hPa | 0 mm | 1.79 m/s, 274° | 404 W/m² | - |
| 1787824922 | 30° C | 76% | 1008.4 hPa | 0 mm | 0.89 m/s, 205° | 399 W/m² | - |
| 1787824861 | 30° C | 75% | 1008.2 hPa | 0 mm | 1.79 m/s, 210° | 350 W/m² | - |
| 1787824800 | 30° C | 75% | 1008.3 hPa | 0 mm | 3.13 m/s, 200° | 387 W/m² | - |
| 1787824739 | 30° C | 75% | 1008.4 hPa | 0 mm | 1.34 m/s, 306° | 362 W/m² | - |
| 1787824678 | 30° C | 75% | 1008.1 hPa | 0 mm | 0.89 m/s, 203° | 417 W/m² | - |
| 1787824617 | 30° C | 75% | 1008.2 hPa | 0 mm | 0.45 m/s, 148° | 493 W/m² | - |
| 1787824556 | 30° C | 75% | 1008 hPa | 0 mm | 0.89 m/s, 204° | 387 W/m² | - |
| 1787824495 | 30° C | 75% | 1008.2 hPa | 0 mm | 1.79 m/s, 311° | 470 W/m² | - |
| 1787824434 | 30° C | 75% | 1008.4 hPa | 0 mm | 2.24 m/s, 293° | 506 W/m² | - |
| 1787824373 | 30° C | 75% | 1008.2 hPa | 0 mm | 2.68 m/s, 249° | 398 W/m² | - |
| 1787824312 | 30° C | 75% | 1008.4 hPa | 0 mm | 0.89 m/s, 294° | 488 W/m² | - |
| 1787824251 | 30° C | 74% | 1008.2 hPa | 0 mm | 1.79 m/s, 275° | 466 W/m² | - |
* Rain latest hour (hover to see other rain measurements)
** Current wind speed in m/s (hover to see current wind gust speed)